Airfield :
LOGIN :

Register | Disclaimer

   EN    FR    IT 

 










Legend :    VFR   Marginal VFR   IFR   Intensive IFR   Very Intensive IFR
Visi :
Ceiling :
>= 8 km
>= 3000ft
5 to 8 km
1000 to 3000 ft
1500m to 5 km
500 to 1000 ft
800 to 1500m
200 to 500 ft
< 800m
< 200 ft
Symbols :   Thunderstorms  Fog  Heavy snow  Heavy precipitations  Wind > 20 kt
SIGMETs :     Misc.  Thunderstorms  Icing  Turbulence  Mountain Waves  Volcanic Ashes






- Airport Elevation : 47 ft
- IATA code : BMA


ESSB - Stockholm-Bromma

CURRENT METAR :
  • 202050Z 17014KT 8000 RA BKN009 03/02 Q1000 R12/09//95

EXPIRED METARs :
  • 202020Z 17013KT 9999 -RA BKN009 03/02 Q1000 R12/09//95
  • 201950Z 17014KT 9999 RA BKN009 04/02 Q1001 R12/09//95
  • 201920Z 17013G26KT 9999 -RA BKN009 04/02 Q1002 R12/09//95
  • 201850Z 16015KT 9999 -RA BKN011 04/02 Q1002 R12/09//95
  • 201820Z 16014G26KT 9999 -RA BKN014 04/02 Q1003 R12/09//95

Expired Forecast.



MET'MAP, your aeronautical weather chart ! - Copyright ORBIFLY December 2007 - Disclaimer

ORBIFLY MET'MAP TEAM :

Programming & Development : Alexandra Zaïnal
Concept & original design : Baudouin d'Aumeries
Assistance for programming : Marc-Olivier Méhu
Technical & hardware support : Manuel Goepfert

Contact : metmap@orbifly.com




SOURCES & CREDITS :

   NOAA